Regional Weather Roundup
Issued by NWS Sioux Falls, SD

Home | Current Version | Previous Version | Graphics & Text | Print | Product List | Glossary Off
Versions: 1 2 3 4 5 6 7 8 9 10 11 12 13 14 15 16 17 18 19 20 21 22 23 24 25 26 27 28 29 30 31 32 33 34 35 36 37 38 39 40 41 42 43 44 45 46 47 48 49 50

000
ASUS43 KFSD 280310
RWRFSD

WEATHER ROUNDUP FOR SE SOUTH DAKOTA/SW MINNESOTA/NW IOWA
NATIONAL WEATHER SERVICE SIOUX FALLS SD
1000 PM CDT THU AUG 27 2015

NOTE: "FAIR" INDICATES FEW OR NO CLOUDS BELOW 12,000 FEET WITH NO
SIGNIFICANT WEATHER AND OR OBSTRUCTIONS TO VISIBILITY.


SDZ038>040-050-052>070-280400-
SOUTHEAST SOUTH DAKOTA

CITY           SKY/WX    TMP DP  RH WIND       PRES   REMARKS
BROOKINGS      CLOUDY    68  63  83 S12       29.97F
CHAMBERLAIN    CLOUDY    68  68  99 E7        29.91S
HURON          LGT RAIN  71  68  90 E8        29.91F
MADISON        FAIR      66  66 100 SE13      29.96F
MITCHELL       LGT RAIN  68  67  96 E12       29.90F
SIOUX FALLS    LGT RAIN  67  64  90 E9        29.96F
WINNER         FAIR      71  68  90 CALM      29.92R FOG
YANKTON        CLOUDY    70  68  94 E14G20    29.91R
$$

MNZ071-072-080-081-089-090-097-098-280400-
SOUTHWEST MINNESOTA

CITY           SKY/WX    TMP DP  RH WIND       PRES   REMARKS
FAIRMONT       CLOUDY    64  55  72 S12       30.01F
JACKSON        RAIN      64  63  94 SE9       30.01F
LUVERNE        CLOUDY    68  64  88 S3        29.99R
MARSHALL       CLOUDY    68  61  77 SE5       29.96S
MONTEVIDEO     CLOUDY    64  63  94 SE5       29.98R
PIPESTONE      LGT RAIN  66  63  88 S10       29.98S
REDWOOD FALLS  CLOUDY    66  64  93 E3        29.97R
TRACY          CLOUDY    67  64  87 S16G22    29.95S
WINDOM         LGT RAIN  66  61  82 S12       29.98F
WORTHINGTON    CLOUDY    63  59  88 S13       30.00R
$$

IAZ001>003-012>014-020>022-031-032-NEZ013-014-SDZ071-280400-
NORTHWEST IOWA

CITY           SKY/WX    TMP DP  RH WIND       PRES   REMARKS
CHEROKEE       TSTM      65  65  99 N12G18    30.06R
DENISON        CLOUDY    68  64  88 E10       29.97R
ESTHERVILLE    CLOUDY    64  60  87 S9        30.02R
LE MARS        CLOUDY    66  64  94 E13G22    29.96F
ORANGE CITY    LGT RAIN  64  64 100 E13G23    29.97R
SHELDON        CLOUDY    64  63  94 E20G30    29.94F FOG
SIOUX CITY     MOCLDY    69  65  86 E18G28    29.93R
SPENCER        TSTM      65  61  87 SE13      30.02F FOG
STORM LAKE     CLOUDY    64  63  94 E10       30.03R
$$

ABBREVIATIONS USED IN REMARKS
   TC - TEMPERATURE IN CELSIUS
  WCI - WIND CHILL INDEX
   HX - HEAT INDEX
  VSB - VISIBILITY




USA.gov is the U.S. government's official web portal to all federal, state and local government web resources and services.